Weather History for Cairo, IL

Change the Weather History Date:

Monday, November 19, 2012

  Actual Average Record
Temperature  
Mean Temperature 52 °F -  
Max Temperature 66 °F 56 °F 77 °F (1985)
Min Temperature 37 °F 39 °F 26 °F (1951)
Degree Days  
Heating Degree Days 14    
Growing Degree Days 2 (Base 50)    
Moisture  
Dew Point 38 °F    
Average Humidity 64    
Maximum Humidity 93    
Minimum Humidity 32    
Precipitation  
Precipitation 0.00 in - - ()
Sea Level Pressure  
Sea Level Pressure 30.26 in    
Wind  
Wind Speed 1 mph (SSW)    
Max Wind Speed 8 mph    
Max Gust Speed -    
Visibility 10 miles    
Events      
Averages and records for this station are not official NWS values.
T = Trace of Precipitation, MM = Missing Value Source: NWS Daily Summary

Daily Weather History Graph

Daily Weather History Graph

Search for Another Location

Airport:

Trip Planner

Search our weather history database for the weather conditions in past years. The results will help you decide how hot, cold, wet, or windy it might be!

Date:

Astronomy

Nov. 19, 2012 Rise Set
Actual Time 6:40 AM CST 4:44 PM CST
Civil Twilight 6:12 AM CST 5:12 PM CST
Nautical Twilight 5:40 AM CST 5:43 PM CST
Astronomical Twilight 5:09 AM CST 6:14 PM CST
Moon 11:46 AM CST 11:07 PM CST
Length of Visible Light 10h 59m
Length of Day
10h 03m
Waxing Crescent, 41% of the Moon is Illuminated
Nov 19
Waxing Crescent
Nov 20
First Quarter
Nov 28
Full
Dec 6
Last Quarter
Dec 13
New

Hourly Weather History & Observations

Time (CST) Temp. Dew Point Humidity Pressure Visibility Wind Dir Wind Speed Gust Speed Precip Events Conditions
12:15 AM 37.4 °F 33.8 °F 87% 30.33 in 4.0 mi Calm Calm - N/A   Clear
12:35 AM 37.4 °F 33.8 °F 87% 30.33 in 10.0 mi Calm Calm - N/A   Clear
12:55 AM 37.4 °F 33.8 °F 87% 30.33 in 10.0 mi Calm Calm - N/A   Clear
1:15 AM 37.4 °F 33.8 °F 87% 30.32 in 10.0 mi Calm Calm - N/A   Clear
1:35 AM 37.4 °F 33.8 °F 87% 30.32 in 10.0 mi Calm Calm - N/A   Clear
1:55 AM 37.4 °F 33.8 °F 87% 30.32 in 10.0 mi Calm Calm - N/A   Clear
2:15 AM 37.4 °F 33.8 °F 87% 30.32 in 10.0 mi Calm Calm - N/A   Clear
2:35 AM 37.4 °F 33.8 °F 87% 30.31 in 10.0 mi Calm Calm - N/A   Clear
2:55 AM 37.4 °F 33.8 °F 87% 30.31 in 10.0 mi Calm Calm - N/A   Clear
3:15 AM 37.4 °F 33.8 °F 87% 30.31 in 10.0 mi Calm Calm - N/A   Clear
3:35 AM 37.4 °F 33.8 °F 87% 30.30 in 10.0 mi Calm Calm - N/A   Clear
3:55 AM 37.4 °F 33.8 °F 87% 30.30 in 10.0 mi Calm Calm - N/A   Clear
4:15 AM 37.4 °F 33.8 °F 87% 30.30 in 10.0 mi Calm Calm - N/A   Clear
4:35 AM 37.4 °F 33.8 °F 87% 30.31 in 10.0 mi Calm Calm - N/A   Clear
4:55 AM 37.4 °F 33.8 °F 87% 30.31 in 10.0 mi Calm Calm - N/A   Clear
5:15 AM 37.4 °F 33.8 °F 87% 30.31 in 10.0 mi Calm Calm - N/A   Clear
5:35 AM 37.4 °F 33.8 °F 87% 30.30 in 10.0 mi Calm Calm - N/A   Clear
6:15 AM 37.4 °F 33.8 °F 87% 30.31 in 7.0 mi Calm Calm - N/A   Clear
6:35 AM 37.4 °F 33.8 °F 87% 30.31 in 4.0 mi Calm Calm - N/A   Clear
6:55 AM 39.2 °F 35.6 °F 87% 30.31 in 7.0 mi Calm Calm - N/A   Clear
7:35 AM 37.4 °F 33.8 °F 87% 30.32 in 10.0 mi Calm Calm - N/A   Clear
7:55 AM 37.4 °F 33.8 °F 87% 30.32 in 7.0 mi Calm Calm - N/A   Clear
8:15 AM 39.2 °F 37.4 °F 93% 30.33 in 7.0 mi Calm Calm - N/A   Clear
8:35 AM 44.6 °F 41.0 °F 87% 30.33 in 10.0 mi Calm Calm - N/A   Clear
8:55 AM 48.2 °F 44.6 °F 87% 30.33 in 10.0 mi Calm Calm - N/A   Clear
9:15 AM 50.0 °F 44.6 °F 82% 30.33 in 10.0 mi Calm Calm - N/A   Clear
9:35 AM 53.6 °F 42.8 °F 67% 30.33 in 10.0 mi Calm Calm - N/A   Clear
9:55 AM 55.4 °F 39.2 °F 54% 30.33 in 10.0 mi Calm Calm - N/A   Clear
10:15 AM 57.2 °F 39.2 °F 51% 30.32 in 10.0 mi Calm Calm - N/A   Clear
10:35 AM 59.0 °F 39.2 °F 48% 30.32 in 10.0 mi SW 4.6 mph - N/A   Clear
10:55 AM 60.8 °F 37.4 °F 42% 30.31 in 10.0 mi SW 4.6 mph - N/A   Clear
11:15 AM 60.8 °F 37.4 °F 42% 30.30 in 10.0 mi SW 4.6 mph - N/A   Clear
11:35 AM 62.6 °F 37.4 °F 39% 30.29 in 10.0 mi SSW 4.6 mph - N/A   Clear
12:15 PM 64.4 °F 35.6 °F 34% 30.26 in 10.0 mi SW 6.9 mph - N/A   Clear
12:35 PM 64.4 °F 35.6 °F 34% 30.26 in 10.0 mi SSW 6.9 mph - N/A   Clear
12:55 PM 64.4 °F 37.4 °F 37% 30.25 in 10.0 mi SSW 5.8 mph - N/A   Clear
1:15 PM 66.2 °F 35.6 °F 32% 30.25 in 10.0 mi SW 6.9 mph - N/A   Scattered Clouds
1:35 PM 64.4 °F 35.6 °F 34% 30.24 in 10.0 mi SW 8.1 mph - N/A   Mostly Cloudy
1:55 PM 64.4 °F 35.6 °F 34% 30.23 in 10.0 mi SSW 8.1 mph - N/A   Overcast
2:15 PM 64.4 °F 35.6 °F 34% 30.22 in 10.0 mi SSW 8.1 mph - N/A   Overcast
2:35 PM 64.4 °F 35.6 °F 34% 30.22 in 10.0 mi SSW 6.9 mph - N/A   Overcast
2:55 PM 64.4 °F 37.4 °F 37% 30.21 in 10.0 mi SSW 4.6 mph - N/A   Overcast
3:15 PM 64.4 °F 37.4 °F 37% 30.21 in 10.0 mi South 5.8 mph - N/A   Overcast
3:35 PM 62.6 °F 37.4 °F 39% 30.21 in 10.0 mi SSW 5.8 mph - N/A   Overcast
3:55 PM 62.6 °F 37.4 °F 39% 30.21 in 10.0 mi SW 3.5 mph - N/A   Overcast
4:15 PM 60.8 °F 39.2 °F 45% 30.21 in 10.0 mi WSW 4.6 mph - N/A   Overcast
4:35 PM 60.8 °F 39.2 °F 45% 30.20 in 10.0 mi Calm Calm - N/A   Overcast
4:55 PM 60.8 °F 37.4 °F 42% 30.20 in 10.0 mi Calm Calm - N/A   Overcast
5:15 PM 59.0 °F 39.2 °F 48% 30.21 in 10.0 mi Calm Calm - N/A   Overcast
5:35 PM 59.0 °F 39.2 °F 48% 30.21 in 10.0 mi Calm Calm - N/A   Overcast
5:55 PM 59.0 °F 39.2 °F 48% 30.21 in 10.0 mi Calm Calm - N/A   Overcast
6:15 PM 57.2 °F 39.2 °F 51% 30.21 in 10.0 mi Calm Calm - N/A   Overcast
6:35 PM 55.4 °F 41.0 °F 58% 30.20 in 10.0 mi Calm Calm - N/A   Overcast
6:55 PM 57.2 °F 41.0 °F 55% 30.20 in 10.0 mi Calm Calm - N/A   Overcast
7:15 PM 57.2 °F 41.0 °F 55% 30.20 in 10.0 mi Calm Calm - N/A   Overcast
7:35 PM 53.6 °F 42.8 °F 67% 30.20 in 10.0 mi Calm Calm - N/A   Overcast
7:55 PM 55.4 °F 42.8 °F 63% 30.20 in 7.0 mi Calm Calm - N/A   Overcast
8:15 PM 55.4 °F 42.8 °F 63% 30.20 in 10.0 mi Calm Calm - N/A   Overcast
8:35 PM 55.4 °F 42.8 °F 63% 30.19 in 10.0 mi South 3.5 mph - N/A   Overcast
8:55 PM 53.6 °F 42.8 °F 67% 30.19 in 10.0 mi South 3.5 mph - N/A   Mostly Cloudy
9:15 PM 55.4 °F 42.8 °F 63% 30.19 in 10.0 mi Calm Calm - N/A   Mostly Cloudy
9:35 PM 51.8 °F 42.8 °F 71% 30.18 in 10.0 mi Calm Calm - N/A   Overcast
9:55 PM 53.6 °F 42.8 °F 67% 30.18 in 10.0 mi Calm Calm - N/A   Overcast
10:15 PM 53.6 °F 42.8 °F 67% 30.18 in 10.0 mi Calm Calm - N/A   Overcast
10:35 PM 53.6 °F 44.6 °F 72% 30.18 in 10.0 mi South 3.5 mph - N/A   Overcast
10:55 PM 55.4 °F 42.8 °F 63% 30.16 in 10.0 mi South 4.6 mph - N/A   Overcast
11:15 PM 57.2 °F 42.8 °F 59% 30.16 in 10.0 mi South 4.6 mph - N/A   Overcast
11:35 PM 57.2 °F 42.8 °F 59% 30.16 in 10.0 mi Calm Calm - N/A   Overcast
11:55 PM 55.4 °F 42.8 °F 63% 30.16 in 10.0 mi Calm Calm - N/A   Mostly Cloudy